Location: Camerons Lookout
(40.9833°S, 175.9333°E)
Time: 09:02:25
(UTC+00:00)

Cosmos 2061 Rocket - Pass Details

Date: 14 January 2026
Orbit: 965 x 1011 km, 82.9° (Epoch: 19 February)

Event Time Altitude Azimuth Distance (km) Brightness Sun altitude
Exits shadow 11:02:13 48° 343° (NNW) 1,284 4.2 -24.8°
Maximum altitude 11:04:09 82° 263° (W) 1,015 4.0 -25.0°
Drops below altitude 10° 11:10:32 10° 174° (S) 2,768 7.2 -25.4°
Sets 11:13:04 0° 173° (S) 3,716 8.1 -25.5°
